Location: Altleiningen
(49.5078°N, 8.0741°E)
Time: 21:22:46
(UTC+00:00)

SL-16 R/B - Pass Details

Date: 14 June 2025
Orbit: 841 x 847 km, 71.0° (Epoch: 16 July)

Event Time Altitude Azimuth Distance (km) Brightness Sun altitude
Rises 21:29:40 0° 329° (NNW) 3,409 7.5 -12.6°
Reaches altitude 10° 21:32:08 10° 327° (NNW) 2,470 6.1 -12.7°
Maximum altitude 21:37:45 66° 246° (WSW) 920 2.4 -13.2°
Enters shadow 21:41:55 18° 168° (SSE) 1,938 3.5 -13.4°
